Station Historical Data
Daily Summary for March 10, 2017 Units:  English    Metric   Both
« Previous Day
Next Day »
Daily Weekly Monthly Yearly Custom
  High: Low: Average:
Temperature: 31.7 °F 14.2 °F 24 °F
Dew Point: 21.3 °F 0.3 °F 13.8 °F
Humidity: 81% 49% 65%
Wind Speed: 17.0mph 0.0mph 5.9mph
Wind Gust: 30.0mph - -
Wind- - WNW
Pressure: 30.23 in 29.98 in -
Precipitation: 0.00 in    
Historical Graphs
 
 
Tabular Data for March 10, 2017
Time Temperature Dew Point Pressure Wind Wind Speed Wind Gust Humidity Rainfall Rate (Hourly)
00:04 31.7 °F 19.4 °F 30.04 in Calm     60% 0.00 in
00:09 31.6 °F 19.7 °F 30.03 in Calm     61% 0.00 in
00:14 31.4 °F 19.9 °F 30.03 in Calm     62% 0.00 in
00:19 31.4 °F 19.9 °F 30.03 in Calm     62% 0.00 in
00:24 31.4 °F 19.9 °F 30.02 in Calm     62% 0.00 in
00:29 31.3 °F 19.8 °F 30.03 in Calm     62% 0.00 in
00:34 31.4 °F 19.9 °F 30.03 in Calm     62% 0.00 in
00:39 31.4 °F 19.9 °F 30.03 in Calm     62% 0.00 in
00:44 31.4 °F 19.9 °F 30.03 in Calm     62% 0.00 in
00:49 31.1 °F 20.0 °F 30.03 in Calm     63% 0.00 in
00:54 30.9 °F 19.8 °F 30.02 in Calm   1.0 mph 63% 0.00 in
00:59 30.7 °F 19.6 °F 30.03 in Calm   1.0 mph 63% 0.00 in
01:04 30.8 °F 19.7 °F 30.02 in Calm     63% 0.00 in
01:09 30.8 °F 20.0 °F 30.02 in Calm     64% 0.00 in
01:14 30.6 °F 19.9 °F 30.02 in Calm     64% 0.00 in
01:19 30.4 °F 20.0 °F 30.02 in Calm     65% 0.00 in
01:24 30.4 °F 20.0 °F 30.02 in Calm     65% 0.00 in
01:29 30.3 °F 19.9 °F 30.02 in Calm     65% 0.00 in
01:34 30.3 °F 19.9 °F 30.02 in Calm     65% 0.00 in
01:39 30.3 °F 20.3 °F 30.02 in Calm     66% 0.00 in
01:44 30.4 °F 20.4 °F 30.01 in Calm     66% 0.00 in
01:49 30.2 °F 20.2 °F 30.00 in Calm     66% 0.00 in
01:54 30.3 °F 20.6 °F 30.00 in Calm     67% 0.00 in
01:59 30.4 °F 20.7 °F 29.99 in NW 1.0 mph 2.0 mph 67% 0.00 in
02:04 30.4 °F 21.1 °F 29.99 in Calm   2.0 mph 68% 0.00 in
02:09 30.3 °F 21.0 °F 30.00 in Calm   2.0 mph 68% 0.00 in
02:14 30.1 °F 20.8 °F 30.00 in Calm     68% 0.00 in
02:19 30.0 °F 21.1 °F 29.99 in Calm     69% 0.00 in
02:24 30.0 °F 21.1 °F 29.99 in Calm     69% 0.00 in
02:29 30.1 °F 21.2 °F 29.98 in Calm     69% 0.00 in
02:34 30.0 °F 21.1 °F 29.98 in Calm     69% 0.00 in
02:39 29.9 °F 21.3 °F 29.98 in Calm     70% 0.00 in
02:44 29.9 °F 21.3 °F 29.99 in Calm     70% 0.00 in
02:49 29.9 °F 21.3 °F 29.99 in Calm     70% 0.00 in
02:54 30.1 °F 21.2 °F 29.99 in Calm   2.0 mph 69% 0.00 in
02:59 30.2 °F 21.2 °F 29.99 in Calm     69% 0.00 in
03:04 30.4 °F 20.7 °F 29.98 in NNW 1.0 mph 7.0 mph 67% 0.00 in
03:09 30.5 °F 20.5 °F 29.99 in North 4.0 mph 9.0 mph 66% 0.00 in
03:14 30.5 °F 20.1 °F 29.99 in NNW 2.0 mph 6.0 mph 65% 0.00 in
03:19 30.4 °F 20.4 °F 29.99 in NNW 6.0 mph 9.0 mph 66% 0.00 in
03:24 30.3 °F 20.6 °F 29.98 in NNE 4.0 mph 7.0 mph 67% 0.00 in
03:29 30.2 °F 20.6 °F 29.98 in NE 6.0 mph 9.0 mph 67% 0.00 in
03:34 30.1 °F 20.5 °F 29.98 in North 4.0 mph 9.0 mph 67% 0.00 in
03:39 29.9 °F 20.6 °F 29.99 in North 5.0 mph 11.0 mph 68% 0.00 in
03:44 29.9 °F 20.6 °F 29.99 in North 5.0 mph 11.0 mph 68% 0.00 in
03:49 29.8 °F 20.9 °F 29.98 in North 4.0 mph 9.0 mph 69% 0.00 in
03:54 29.7 °F 20.8 °F 29.98 in North 4.0 mph 8.0 mph 69% 0.00 in
03:59 29.6 °F 20.7 °F 29.98 in North 3.0 mph 7.0 mph 69% 0.00 in
04:04 29.5 °F 20.9 °F 29.98 in NE 3.0 mph 7.0 mph 70% 0.00 in
04:09 29.5 °F 20.9 °F 29.98 in North 3.0 mph 7.0 mph 70% 0.00 in
04:14 29.4 °F 20.8 °F 29.98 in NNE 4.0 mph 7.0 mph 70% 0.00 in
04:19 29.4 °F 20.8 °F 29.99 in NNW 2.0 mph 8.0 mph 70% 0.00 in
04:24 29.3 °F 20.7 °F 29.99 in NNW 2.0 mph 6.0 mph 70% 0.00 in
04:29 29.3 °F 20.4 °F 29.99 in NNW 1.0 mph 6.0 mph 69% 0.00 in
04:34 29.3 °F 20.7 °F 30.00 in NNE 1.0 mph 4.0 mph 70% 0.00 in
04:39 29.3 °F 20.4 °F 30.00 in North 2.0 mph 6.0 mph 69% 0.00 in
04:44 29.3 °F 20.4 °F 30.00 in North 3.0 mph 6.0 mph 69% 0.00 in
04:49 29.3 °F 20.4 °F 30.00 in North 2.0 mph 6.0 mph 69% 0.00 in
04:54 29.3 °F 20.4 °F 30.00 in NNW 2.0 mph 6.0 mph 69% 0.00 in
04:59 29.3 °F 20.0 °F 30.00 in North 3.0 mph 6.0 mph 68% 0.00 in
05:04 29.3 °F 20.4 °F 30.00 in NNW 3.0 mph 8.0 mph 69% 0.00 in
05:09 29.2 °F 19.9 °F 30.00 in North 4.0 mph 11.0 mph 68% 0.00 in
05:14 29.2 °F 19.9 °F 30.00 in NNW 5.0 mph 11.0 mph 68% 0.00 in
05:19 29.1 °F 19.8 °F 30.01 in NNW 4.0 mph 9.0 mph 68% 0.00 in
05:24 29.1 °F 20.2 °F 30.01 in NNW 5.0 mph 8.0 mph 69% 0.00 in
05:29 29.0 °F 20.1 °F 30.01 in North 2.0 mph 7.0 mph 69% 0.00 in
05:34 29.0 °F 19.8 °F 30.01 in NNW 4.0 mph 7.0 mph 68% 0.00 in
05:39 28.9 °F 19.7 °F 30.01 in NNW 3.0 mph 11.0 mph 68% 0.00 in
05:49 28.8 °F 19.9 °F 30.01 in North 4.0 mph 8.0 mph 69% 0.00 in
05:54 28.7 °F 19.8 °F 30.02 in North 3.0 mph 8.0 mph 69% 0.00 in
05:59 28.7 °F 19.8 °F 30.02 in North 4.0 mph 8.0 mph 69% 0.00 in
06:04 28.8 °F 20.2 °F 30.02 in North 3.0 mph 8.0 mph 70% 0.00 in
06:09 28.7 °F 20.1 °F 30.02 in North 3.0 mph 8.0 mph 70% 0.00 in
06:14 28.6 °F 20.1 °F 30.02 in North 3.0 mph 8.0 mph 70% 0.00 in
06:19 28.3 °F 19.4 °F 30.02 in North 3.0 mph 9.0 mph 69% 0.00 in
06:24 28.1 °F 19.6 °F 30.02 in North 4.0 mph 9.0 mph 70% 0.00 in
06:29 28.0 °F 19.5 °F 30.03 in NNW 4.0 mph 10.0 mph 70% 0.00 in
06:34 28.0 °F 19.1 °F 30.03 in North 6.0 mph 9.0 mph 69% 0.00 in
06:39 27.8 °F 19.3 °F 30.03 in NE 6.0 mph 10.0 mph 70% 0.00 in
06:44 27.8 °F 19.3 °F 30.03 in North 5.0 mph 9.0 mph 70% 0.00 in
06:49 27.7 °F 19.2 °F 30.03 in NNW 3.0 mph 8.0 mph 70% 0.00 in
06:54 27.7 °F 19.2 °F 30.03 in NNE 4.0 mph 6.0 mph 70% 0.00 in
06:59 27.7 °F 19.2 °F 30.03 in North 4.0 mph 8.0 mph 70% 0.00 in
07:04 27.7 °F 18.8 °F 30.03 in North 4.0 mph 13.0 mph 69% 0.00 in
07:09 27.6 °F 18.8 °F 30.03 in North 4.0 mph 13.0 mph 69% 0.00 in
07:14 27.6 °F 18.8 °F 30.03 in NNW 4.0 mph 9.0 mph 69% 0.00 in
07:19 27.7 °F 18.5 °F 30.03 in NNW 4.0 mph 9.0 mph 68% 0.00 in
07:24 27.6 °F 18.1 °F 30.03 in NNW 5.0 mph 11.0 mph 67% 0.00 in
07:29 27.4 °F 17.9 °F 30.03 in NW 2.0 mph 10.0 mph 67% 0.00 in
07:34 27.3 °F 17.8 °F 30.04 in NNW 4.0 mph 10.0 mph 67% 0.00 in
07:39 27.0 °F 18.2 °F 30.04 in West 3.0 mph 11.0 mph 69% 0.00 in
07:44 26.7 °F 18.9 °F 30.04 in NNW 4.0 mph 12.0 mph 72% 0.00 in
07:49 26.7 °F 18.9 °F 30.04 in NNW 7.0 mph 12.0 mph 72% 0.00 in
07:54 26.4 °F 18.9 °F 30.04 in North 8.0 mph 15.0 mph 73% 0.00 in
07:59 26.2 °F 19.0 °F 30.05 in North 4.0 mph 11.0 mph 74% 0.00 in
08:09 25.7 °F 19.5 °F 30.05 in NNW 5.0 mph 11.0 mph 77% 0.00 in
08:14 25.7 °F 19.5 °F 30.05 in NNW 5.0 mph 11.0 mph 77% 0.00 in
08:19 25.8 °F 19.9 °F 30.04 in NNW 4.0 mph 9.0 mph 78% 0.00 in
08:24 25.9 °F 20.0 °F 30.04 in North 4.0 mph 9.0 mph 78% 0.00 in
08:29 26.2 °F 19.7 °F 30.04 in North 5.0 mph 10.0 mph 76% 0.00 in
08:34 26.3 °F 19.5 °F 30.04 in North 5.0 mph 10.0 mph 75% 0.00 in
08:39 26.6 °F 19.4 °F 30.05 in North 5.0 mph 8.0 mph 74% 0.00 in
08:44 26.8 °F 18.7 °F 30.05 in NNW 4.0 mph 7.0 mph 71% 0.00 in
08:49 26.9 °F 17.7 °F 30.05 in WNW 6.0 mph 12.0 mph 68% 0.00 in
08:54 26.9 °F 16.7 °F 30.05 in NW 8.0 mph 15.0 mph 65% 0.00 in
08:59 27.1 °F 16.9 °F 30.05 in NNW 9.0 mph 12.0 mph 65% 0.00 in
09:04 27.0 °F 16.1 °F 30.05 in North 5.0 mph 15.0 mph 63% 0.00 in
09:09 26.8 °F 15.9 °F 30.05 in North 10.0 mph 15.0 mph 63% 0.00 in
09:14 26.7 °F 15.8 °F 30.05 in North 8.0 mph 14.0 mph 63% 0.00 in
09:19 27.8 °F 16.5 °F 30.05 in NNW 7.0 mph 14.0 mph 62% 0.00 in
09:24 27.7 °F 15.2 °F 30.05 in NNW 7.0 mph 13.0 mph 59% 0.00 in
09:29 28.2 °F 16.1 °F 30.05 in North 6.0 mph 11.0 mph 60% 0.00 in
09:34 28.3 °F 15.8 °F 30.05 in NNW 6.0 mph 17.0 mph 59% 0.00 in
09:39 28.7 °F 15.8 °F 30.05 in NNW 6.0 mph 17.0 mph 58% 0.00 in
09:44 28.9 °F 14.7 °F 30.05 in NW 6.0 mph 14.0 mph 55% 0.00 in
09:49 28.4 °F 14.7 °F 30.05 in NNW 7.0 mph 19.0 mph 56% 0.00 in
09:54 28.3 °F 15.0 °F 30.05 in WNW 8.0 mph 10.0 mph 57% 0.00 in
09:59 27.7 °F 14.4 °F 30.05 in NNW 4.0 mph 18.0 mph 57% 0.00 in
10:04 28.0 °F 15.9 °F 30.05 in NW 5.0 mph 12.0 mph 60% 0.00 in
10:09 28.3 °F 15.0 °F 30.05 in North 8.0 mph 12.0 mph 57% 0.00 in
10:14 27.4 °F 14.9 °F 30.05 in NW 4.0 mph 10.0 mph 59% 0.00 in
10:19 27.7 °F 15.6 °F 30.05 in NW 6.0 mph 11.0 mph 60% 0.00 in
10:24 29.1 °F 16.1 °F 30.04 in NNW 7.0 mph 14.0 mph 58% 0.00 in
10:29 28.5 °F 14.4 °F 30.05 in NNW 7.0 mph 15.0 mph 55% 0.00 in
10:34 27.8 °F 14.9 °F 30.05 in NNW 8.0 mph 17.0 mph 58% 0.00 in
10:39 27.9 °F 14.6 °F 30.05 in NNW 7.0 mph 17.0 mph 57% 0.00 in
10:44 27.8 °F 17.2 °F 30.05 in NNW 6.0 mph 13.0 mph 64% 0.00 in
10:49 27.2 °F 17.7 °F 30.05 in North 6.0 mph 13.0 mph 67% 0.00 in
10:54 26.8 °F 17.3 °F 30.05 in North 8.0 mph 16.0 mph 67% 0.00 in
10:59 26.3 °F 18.2 °F 30.05 in NNW 8.0 mph 15.0 mph 71% 0.00 in
11:04 26.4 °F 18.3 °F 30.05 in North 5.0 mph 16.0 mph 71% 0.00 in
11:09 26.5 °F 18.7 °F 30.06 in North 5.0 mph 15.0 mph 72% 0.00 in
11:14 26.2 °F 18.4 °F 30.06 in North 8.0 mph 12.0 mph 72% 0.00 in
11:19 27.5 °F 19.3 °F 30.05 in NNE 5.0 mph 11.0 mph 71% 0.00 in
11:24 26.9 °F 18.4 °F 30.06 in North 6.0 mph 17.0 mph 70% 0.00 in
11:29 26.5 °F 17.7 °F 30.05 in NNE 6.0 mph 15.0 mph 69% 0.00 in
11:34 26.2 °F 17.4 °F 30.05 in North 8.0 mph 15.0 mph 69% 0.00 in
11:39 25.8 °F 17.0 °F 30.05 in North 7.0 mph 13.0 mph 69% 0.00 in
11:44 26.2 °F 17.4 °F 30.05 in NNW 8.0 mph 15.0 mph 69% 0.00 in
11:49 25.8 °F 17.7 °F 30.05 in North 8.0 mph 17.0 mph 71% 0.00 in
11:54 25.1 °F 17.0 °F 30.05 in North 9.0 mph 17.0 mph 71% 0.00 in
11:59 25.4 °F 17.6 °F 30.06 in NNW 10.0 mph 16.0 mph 72% 0.00 in
12:04 25.8 °F 18.7 °F 30.06 in North 5.0 mph 15.0 mph 74% 0.00 in
12:09 25.3 °F 16.5 °F 30.06 in NNW 7.0 mph 15.0 mph 69% 0.00 in
12:14 26.1 °F 17.6 °F 30.06 in NNW 7.0 mph 14.0 mph 70% 0.00 in
12:19 26.3 °F 17.5 °F 30.06 in NW 6.0 mph 11.0 mph 69% 0.00 in
12:24 25.9 °F 15.7 °F 30.06 in NW 4.0 mph 14.0 mph 65% 0.00 in
12:29 26.3 °F 15.4 °F 30.05 in NNW 3.0 mph 15.0 mph 63% 0.00 in
12:34 26.6 °F 17.1 °F 30.05 in NNW 5.0 mph 13.0 mph 67% 0.00 in
12:39 25.7 °F 16.9 °F 30.05 in NW 11.0 mph 15.0 mph 69% 0.00 in
12:44 24.9 °F 17.1 °F 30.05 in North 8.0 mph 16.0 mph 72% 0.00 in
12:49 25.3 °F 16.2 °F 30.05 in NNW 8.0 mph 16.0 mph 68% 0.00 in
12:54 25.9 °F 15.7 °F 30.04 in NNW 8.0 mph 16.0 mph 65% 0.00 in
12:59 27.3 °F 17.1 °F 30.05 in NNW 7.0 mph 15.0 mph 65% 0.00 in
13:04 27.0 °F 15.7 °F 30.05 in NNW 7.0 mph 14.0 mph 62% 0.00 in
13:09 27.7 °F 15.2 °F 30.05 in NNW 7.0 mph 16.0 mph 59% 0.00 in
13:14 26.8 °F 14.4 °F 30.05 in NNW 7.0 mph 16.0 mph 59% 0.00 in
13:19 26.6 °F 14.9 °F 30.05 in NNW 11.0 mph 15.0 mph 61% 0.00 in
13:24 26.3 °F 13.9 °F 30.05 in NNW 5.0 mph 19.0 mph 59% 0.00 in
13:29 27.4 °F 16.1 °F 30.05 in North 4.0 mph 15.0 mph 62% 0.00 in
13:34 26.7 °F 15.4 °F 30.05 in NW 7.0 mph 19.0 mph 62% 0.00 in
13:39 25.7 °F 17.3 °F 30.06 in West 7.0 mph 16.0 mph 70% 0.00 in
13:44 25.1 °F 16.4 °F 30.06 in NW 7.0 mph 16.0 mph 69% 0.00 in
13:49 24.6 °F 16.5 °F 30.05 in NNW 6.0 mph 15.0 mph 71% 0.00 in
13:54 24.3 °F 16.6 °F 30.06 in NNW 7.0 mph 18.0 mph 72% 0.00 in
13:59 23.1 °F 17.0 °F 30.06 in NNW 8.0 mph 19.0 mph 77% 0.00 in
14:04 22.5 °F 17.0 °F 30.06 in NNW 8.0 mph 19.0 mph 79% 0.00 in
14:09 22.5 °F 17.3 °F 30.06 in North 7.0 mph 16.0 mph 80% 0.00 in
14:14 22.0 °F 17.1 °F 30.06 in NNW 8.0 mph 16.0 mph 81% 0.00 in
14:19 23.2 °F 17.9 °F 30.06 in NW 8.0 mph 15.0 mph 80% 0.00 in
14:24 23.7 °F 16.3 °F 30.06 in NNW 5.0 mph 12.0 mph 73% 0.00 in
14:29 23.2 °F 16.1 °F 30.07 in NNW 6.0 mph 18.0 mph 74% 0.00 in
14:34 23.3 °F 14.3 °F 30.06 in NW 9.0 mph 17.0 mph 68% 0.00 in
14:39 24.7 °F 14.6 °F 30.07 in WNW 6.0 mph 21.0 mph 65% 0.00 in
14:44 25.1 °F 12.8 °F 30.07 in WNW 15.0 mph 21.0 mph 59% 0.00 in
14:49 24.1 °F 11.0 °F 30.07 in WNW 11.0 mph 30.0 mph 57% 0.00 in
14:54 24.2 °F 11.1 °F 30.07 in NW 11.0 mph 30.0 mph 57% 0.00 in
14:59 25.5 °F 11.1 °F 30.08 in NW 10.0 mph 22.0 mph 54% 0.00 in
15:04 25.1 °F 10.3 °F 30.08 in NW 10.0 mph 22.0 mph 53% 0.00 in
15:09 25.3 °F 10.1 °F 30.08 in WNW 11.0 mph 21.0 mph 52% 0.00 in
15:14 25.0 °F 11.1 °F 30.09 in WNW 5.0 mph 22.0 mph 55% 0.00 in
15:19 24.2 °F 9.1 °F 30.10 in NW 11.0 mph 22.0 mph 52% 0.00 in
15:24 24.6 °F 9.5 °F 30.10 in NW 7.0 mph 20.0 mph 52% 0.00 in
15:29 24.0 °F 7.6 °F 30.10 in WNW 6.0 mph 23.0 mph 49% 0.00 in
15:34 22.7 °F 6.8 °F 30.10 in NW 10.0 mph 25.0 mph 50% 0.00 in
15:39 22.3 °F 8.6 °F 30.11 in North 7.0 mph 19.0 mph 55% 0.00 in
15:44 22.0 °F 8.7 °F 30.11 in WNW 5.0 mph 14.0 mph 56% 0.00 in
15:49 22.0 °F 7.9 °F 30.12 in WNW 10.0 mph 20.0 mph 54% 0.00 in
15:54 21.7 °F 7.6 °F 30.11 in NW 9.0 mph 20.0 mph 54% 0.00 in
15:59 21.9 °F 6.9 °F 30.12 in WNW 3.0 mph 13.0 mph 52% 0.00 in
16:04 22.7 °F 7.3 °F 30.12 in NW 6.0 mph 13.0 mph 51% 0.00 in
16:09 22.5 °F 6.6 °F 30.12 in NW 7.0 mph 20.0 mph 50% 0.00 in
16:14 21.5 °F 6.1 °F 30.13 in NW 10.0 mph 23.0 mph 51% 0.00 in
16:19 20.8 °F 5.9 °F 30.12 in NW 6.0 mph 20.0 mph 52% 0.00 in
16:24 21.4 °F 6.9 °F 30.13 in NW 9.0 mph 19.0 mph 53% 0.00 in
16:29 20.9 °F 7.6 °F 30.13 in WNW 11.0 mph 19.0 mph 56% 0.00 in
16:34 20.6 °F 8.9 °F 30.14 in WNW 10.0 mph 19.0 mph 60% 0.00 in
16:39 20.6 °F 8.1 °F 30.14 in WNW 9.0 mph 15.0 mph 58% 0.00 in
16:44 19.8 °F 7.0 °F 30.14 in NNW 7.0 mph 18.0 mph 57% 0.00 in
16:49 20.0 °F 8.0 °F 30.14 in West 14.0 mph 18.0 mph 59% 0.00 in
16:54 20.1 °F 5.7 °F 30.14 in West 12.0 mph 26.0 mph 53% 0.00 in
16:59 20.1 °F 4.8 °F 30.15 in NW 11.0 mph 26.0 mph 51% 0.00 in
17:04 20.0 °F 4.7 °F 30.14 in NW 9.0 mph 24.0 mph 51% 0.00 in
17:09 19.9 °F 5.1 °F 30.15 in NW 9.0 mph 24.0 mph 52% 0.00 in
17:14 20.0 °F 6.0 °F 30.15 in WNW 15.0 mph 24.0 mph 54% 0.00 in
17:19 19.6 °F 6.0 °F 30.15 in NNW 14.0 mph 17.0 mph 55% 0.00 in
17:24 19.3 °F 6.5 °F 30.16 in NW 10.0 mph 18.0 mph 57% 0.00 in
17:29 19.0 °F 7.7 °F 30.16 in NW 8.0 mph 21.0 mph 61% 0.00 in
17:34 18.5 °F 9.4 °F 30.16 in NW 10.0 mph 21.0 mph 67% 0.00 in
17:39 17.8 °F 9.0 °F 30.16 in WSW 5.0 mph 18.0 mph 68% 0.00 in
17:44 17.6 °F 8.2 °F 30.16 in NW 8.0 mph 21.0 mph 66% 0.00 in
17:49 17.7 °F 7.6 °F 30.16 in WNW 8.0 mph 17.0 mph 64% 0.00 in
17:54 17.7 °F 6.2 °F 30.16 in WNW 17.0 mph 18.0 mph 60% 0.00 in
17:59 17.7 °F 5.0 °F 30.17 in NW 14.0 mph 18.0 mph 57% 0.00 in
18:04 17.8 °F 5.1 °F 30.17 in NW 8.0 mph 18.0 mph 57% 0.00 in
18:09 17.7 °F 6.2 °F 30.17 in NW 9.0 mph 24.0 mph 60% 0.00 in
18:14 17.3 °F 6.5 °F 30.18 in NW 9.0 mph 24.0 mph 62% 0.00 in
18:19 17.1 °F 7.7 °F 30.17 in NW 9.0 mph 19.0 mph 66% 0.00 in
18:24 16.9 °F 7.5 °F 30.18 in West 8.0 mph 14.0 mph 66% 0.00 in
18:29 16.9 °F 6.1 °F 30.17 in SSW 11.0 mph 18.0 mph 62% 0.00 in
18:34 16.8 °F 4.6 °F 30.18 in West 10.0 mph 18.0 mph 58% 0.00 in
18:39 16.7 °F 4.5 °F 30.18 in WNW 8.0 mph 18.0 mph 58% 0.00 in
18:44 16.8 °F 4.6 °F 30.18 in WNW 7.0 mph 17.0 mph 58% 0.00 in
18:49 16.7 °F 5.6 °F 30.18 in NW 13.0 mph 18.0 mph 61% 0.00 in
18:54 16.6 °F 5.5 °F 30.19 in WNW 7.0 mph 16.0 mph 61% 0.00 in
18:59 16.6 °F 4.7 °F 30.19 in NW 9.0 mph 19.0 mph 59% 0.00 in
19:04 16.6 °F 5.5 °F 30.20 in West 13.0 mph 22.0 mph 61% 0.00 in
19:09 16.2 °F 4.4 °F 30.19 in WNW 10.0 mph 22.0 mph 59% 0.00 in
19:14 16.0 °F 3.4 °F 30.19 in WNW 9.0 mph 17.0 mph 57% 0.00 in
19:19 15.9 °F 2.6 °F 30.20 in WNW 9.0 mph 18.0 mph 55% 0.00 in
19:24 16.1 °F 2.4 °F 30.20 in WNW 8.0 mph 18.0 mph 54% 0.00 in
19:29 16.1 °F 2.7 °F 30.20 in West 12.0 mph 15.0 mph 55% 0.00 in
19:34 16.2 °F 2.4 °F 30.21 in WNW 11.0 mph 17.0 mph 54% 0.00 in
19:39 16.2 °F 1.6 °F 30.21 in WNW 9.0 mph 18.0 mph 52% 0.00 in
19:44 16.2 °F 0.8 °F 30.21 in WNW 11.0 mph 22.0 mph 50% 0.00 in
19:49 16.1 °F 0.3 °F 30.21 in WNW 12.0 mph 22.0 mph 49% 0.00 in
19:54 16.0 °F 1.0 °F 30.22 in WNW 5.0 mph 23.0 mph 51% 0.00 in
19:59 15.9 °F 1.4 °F 30.22 in WNW 16.0 mph 21.0 mph 52% 0.00 in
20:04 16.0 °F 1.0 °F 30.21 in West 6.0 mph 18.0 mph 51% 0.00 in
20:09 16.1 °F 1.5 °F 30.22 in NW 8.0 mph 16.0 mph 52% 0.00 in
20:14 16.1 °F 1.9 °F 30.21 in NW 8.0 mph 16.0 mph 53% 0.00 in
20:19 16.1 °F 1.9 °F 30.22 in NNW 9.0 mph 18.0 mph 53% 0.00 in
20:24 16.0 °F 2.3 °F 30.22 in WNW 11.0 mph 22.0 mph 54% 0.00 in
20:29 16.0 °F 2.3 °F 30.22 in West 9.0 mph 22.0 mph 54% 0.00 in
20:34 15.9 °F 2.6 °F 30.22 in NW 4.0 mph 16.0 mph 55% 0.00 in
20:39 15.9 °F 3.0 °F 30.22 in WNW 13.0 mph 17.0 mph 56% 0.00 in
20:44 15.9 °F 3.0 °F 30.22 in WNW 10.0 mph 17.0 mph 56% 0.00 in
20:49 15.8 °F 2.9 °F 30.22 in WNW 9.0 mph 17.0 mph 56% 0.00 in
20:54 15.7 °F 3.1 °F 30.22 in WNW 7.0 mph 17.0 mph 57% 0.00 in
20:59 15.6 °F 3.4 °F 30.22 in WNW 8.0 mph 18.0 mph 58% 0.00 in
21:04 15.6 °F 4.2 °F 30.22 in WNW 5.0 mph 16.0 mph 60% 0.00 in
21:09 15.5 °F 4.1 °F 30.22 in WNW 8.0 mph 13.0 mph 60% 0.00 in
21:14 15.5 °F 4.1 °F 30.22 in West 11.0 mph 14.0 mph 60% 0.00 in
21:19 15.6 °F 4.5 °F 30.22 in WNW 8.0 mph 14.0 mph 61% 0.00 in
21:24 15.6 °F 5.2 °F 30.22 in West 5.0 mph 12.0 mph 63% 0.00 in
21:29 15.6 °F 4.9 °F 30.22 in WNW 5.0 mph 13.0 mph 62% 0.00 in
21:34 15.5 °F 5.8 °F 30.22 in WNW 8.0 mph 12.0 mph 65% 0.00 in
21:39 15.3 °F 6.3 °F 30.22 in WNW 5.0 mph 14.0 mph 67% 0.00 in
21:44 15.1 °F 6.4 °F 30.22 in West 6.0 mph 11.0 mph 68% 0.00 in
21:49 15.2 °F 6.8 °F 30.22 in WNW 6.0 mph 11.0 mph 69% 0.00 in
21:54 15.2 °F 7.2 °F 30.22 in WNW 5.0 mph 11.0 mph 70% 0.00 in
21:59 15.1 °F 7.7 °F 30.23 in WNW 5.0 mph 10.0 mph 72% 0.00 in
22:04 15.0 °F 8.2 °F 30.23 in WNW 6.0 mph 12.0 mph 74% 0.00 in
22:09 14.8 °F 8.6 °F 30.23 in West 7.0 mph 12.0 mph 76% 0.00 in
22:14 14.6 °F 9.0 °F 30.23 in WNW 8.0 mph 12.0 mph 78% 0.00 in
22:19 14.5 °F 9.2 °F 30.23 in WNW 7.0 mph 13.0 mph 79% 0.00 in
22:24 14.5 °F 9.5 °F 30.22 in WNW 4.0 mph 8.0 mph 80% 0.00 in
22:29 14.5 °F 9.5 °F 30.22 in WNW 4.0 mph 10.0 mph 80% 0.00 in
22:34 14.5 °F 9.2 °F 30.22 in West 6.0 mph 14.0 mph 79% 0.00 in
22:39 14.5 °F 8.6 °F 30.22 in West 7.0 mph 15.0 mph 77% 0.00 in
22:44 14.4 °F 8.5 °F 30.22 in West 5.0 mph 15.0 mph 77% 0.00 in
22:49 14.3 °F 8.4 °F 30.22 in SW 3.0 mph 11.0 mph 77% 0.00 in
22:54 14.2 °F 8.3 °F 30.22 in West 6.0 mph 13.0 mph 77% 0.00 in
22:59 14.2 °F 8.3 °F 30.22 in West 7.0 mph 14.0 mph 77% 0.00 in
23:04 14.2 °F 8.6 °F 30.22 in West 6.0 mph 14.0 mph 78% 0.00 in
23:09 14.2 °F 8.6 °F 30.22 in West 5.0 mph 15.0 mph 78% 0.00 in
23:14 14.2 °F 8.3 °F 30.22 in WNW 2.0 mph 11.0 mph 77% 0.00 in
23:19 14.3 °F 8.7 °F 30.22 in West 5.0 mph 14.0 mph 78% 0.00 in
23:24 14.3 °F 8.7 °F 30.22 in West 8.0 mph 21.0 mph 78% 0.00 in
23:29 14.4 °F 8.8 °F 30.21 in West 8.0 mph 21.0 mph 78% 0.00 in
23:34 14.5 °F 8.3 °F 30.21 in WSW 10.0 mph 10.0 mph 76% 0.00 in
23:39 14.5 °F 8.0 °F 30.21 in WSW 4.0 mph 9.0 mph 75% 0.00 in
23:44 14.4 °F 7.9 °F 30.22 in WNW 5.0 mph 15.0 mph 75% 0.00 in
23:49 14.4 °F 7.9 °F 30.21 in WNW 2.0 mph 9.0 mph 75% 0.00 in
23:54 14.4 °F 7.6 °F 30.21 in WNW 8.0 mph 15.0 mph 74% 0.00 in
23:59 14.4 °F 7.6 °F 30.21 in West 8.0 mph 15.0 mph 74% 0.00 in
Buffalo, New York, USA
Compliments of Weather Underground - 2.5 mb